Weather in Balchik

Bulgaria     43°25′33″N   28°09′45″E
temp.,
°C
wind,
m/s
gust,
m/s
humid.,
%
clouds,
%
prec.,
mm/h
press.,
hPa
HPBL,
m
22 october, fri
fri2200:00+12sw35710 0.0 101688
03:00+12w33690 0.0 101640
06:00+12w34650 0.0 101757
09:00+14w36590 0.0 1017139
12:00+20wsw35424 0.0 1018667
15:00+21ssw34415 0.0 10171144
18:00+17ssw346486 0.0 101765
21:00+16wsw236263 0.0 101826
23 october, sat
sat2300:00+15w226394 0.0 101816
03:00+15w2264100 0.0 101714
06:00+14w3364100 0.0 101723
09:00+16w3458100 0.0 101889
12:00+20wnw4545100 0.0 1019503
15:00+21wnw574418 0.0 10181419
18:00+19nw465620 0.0 1019118
21:00+16nne346196 0.0 1021116
24 october, sun
sun2400:00+15ne2469100 0.0 1021208
03:00+13nnw4682100 0.9 1022314
06:00+11n7992100 10.9 1023530
09:00+10n8983100 13.6 1026759
12:00+10n5964100 0.3 10281010
15:00+12n575392 0.3 10281589
18:00+11nne47535 0.0 1029316
21:00+9nnw34575 0.0 103278
25 october, mon
mon2500:00+8nnw33575 0.0 103261
03:00+7nnw47595 0.0 1032135
06:00+6n47634 0.0 1033145
09:00+7n36600 0.0 1034226
12:00+10nne45525 0.0 1034990
15:00+11ne55495 0.0 10321236
18:00+8ne46623 0.0 1032409
21:00+7nne35734 0.0 1032161
26 october, tue
tue2600:00+7ne36768 0.0 1032165
03:00+6nne33777 0.0 103168
06:00+6nne338230 0.0 103068
09:00+8ne257346 0.0 1029178
12:00+12e565765 0.0 10291265
15:00+12e566198 0.0 10271170
18:00+11e576456 0.0 1026766
21:00+11e476499 0.0 1026480